SYRACUSE 3A

Last updated on Thu Oct 30 2025 00:02:47 GMT+0000 (Coordinated Universal Time)

1 28885U 05041B 25302.47541105 .00000142 00000+0 00000+0 0 9995 2 28885 4.0523 78.6933 0003744 146.2336 6.0957 1.00271666 73439
UTC large
Height (km)
Speed (km/s)
/
Latitude / Longitude
Inclination (degrees)
Orbital Period (minutes)
Azimuth
Elevation
Range (km)
Doppler Factor

Next 0 passes for location: London (51.5072 / 0.1276)

Sorry there are no passes over London.